Location: Beaver Brook Station
(42.3793°N, 71.2203°W)
Time: 00:28:40
(UTC+00:00)

BREEZE-M R/B - Pass Details

Date: 29 October 2020
Orbit: 288 x 23012 km, 49.2° (Epoch: 04 December)

Event Time Altitude Azimuth Distance (km) Brightness Sun altitude
Rises 22:52:41 0° 279° (W) 7,048 10.5 -13.7°
Reaches altitude 10° 22:59:45 10° 287° (WNW) 3,883 8.7 -15.0°
Maximum altitude 23:06:27 34° 352° (N) 1,011 4.7 -16.2°
Enters shadow 23:07:43 25° 38° (NE) 1,032 4.3 -16.5°
